Location: Home
(42.5358°N, 72.7383°W)
Time: 19:19:53
(UTC-05:00)

Tiros 1 - Pass Details

Date: 30 November 2021
Orbit: 629 x 664 km, 48.4° (Epoch: 26 January)

Event Time Altitude Azimuth Distance (km) Brightness Sun altitude
Rises 18:36:57 0° 209° (SSW) 2,909 11.0 -24.8°
Reaches altitude 10° 18:39:29 10° 198° (SSW) 2,009 10.0 -25.3°
Enters shadow 18:41:37 22° 177° (S) 1,390 8.8 -25.7°
